TimeEDT,TemperatureF,Dew PointF,Humidity,Sea Level PressureIn,VisibilityMPH,Wind Direction,Wind SpeedMPH,Gust SpeedMPH,PrecipitationIn,Events,Conditions,WindDirDegrees,DateUTC
12:54 AM,46.9,28.9,50,29.86,-9999.0,West,13.8,23.0,N/A,,Unknown,280,2013-05-13 04:54:00
1:54 AM,46.0,28.9,51,29.87,-9999.0,West,10.4,-,N/A,,Unknown,280,2013-05-13 05:54:00
2:54 AM,44.1,30.0,58,29.88,-9999.0,West,12.7,-,N/A,,Unknown,260,2013-05-13 06:54:00
3:54 AM,42.1,28.9,60,29.88,-9999.0,West,10.4,-,N/A,,Unknown,260,2013-05-13 07:54:00
4:54 AM,42.1,28.9,60,29.91,-9999.0,West,12.7,-,N/A,,Unknown,260,2013-05-13 08:54:00
5:54 AM,41.0,28.9,62,29.93,-9999.0,WSW,9.2,-,N/A,,Unknown,250,2013-05-13 09:54:00
6:54 AM,43.0,30.0,60,29.95,-9999.0,WSW,6.9,-,N/A,,Unknown,240,2013-05-13 10:54:00
7:54 AM,46.9,30.9,54,29.95,-9999.0,West,12.7,18.4,N/A,,Unknown,280,2013-05-13 11:54:00
8:54 AM,50.0,28.0,43,29.96,-9999.0,West,12.7,24.2,N/A,,Unknown,270,2013-05-13 12:54:00
9:54 AM,52.0,28.0,40,29.97,-9999.0,West,15.0,25.3,N/A,,Unknown,270,2013-05-13 13:54:00
10:54 AM,52.0,27.0,38,29.98,-9999.0,West,12.7,19.6,N/A,,Unknown,260,2013-05-13 14:54:00
11:54 AM,55.9,28.9,36,29.98,-9999.0,WSW,11.5,18.4,N/A,,Unknown,250,2013-05-13 15:54:00
12:54 PM,55.9,27.0,33,29.97,-9999.0,SW,11.5,17.3,N/A,,Unknown,230,2013-05-13 16:54:00
1:54 PM,57.9,27.0,31,29.97,-9999.0,West,10.4,24.2,N/A,,Unknown,270,2013-05-13 17:54:00
2:54 PM,57.9,27.0,31,29.96,-9999.0,West,16.1,27.6,N/A,,Unknown,270,2013-05-13 18:54:00
4:54 PM,57.9,27.0,31,29.94,-9999.0,WNW,17.3,23.0,N/A,,Unknown,300,2013-05-13 20:54:00
5:54 PM,53.1,25.0,34,29.96,-9999.0,WNW,9.2,18.4,N/A,,Unknown,290,2013-05-13 21:54:00
6:54 PM,53.1,25.0,34,29.97,-9999.0,WNW,13.8,21.9,N/A,,Unknown,300,2013-05-13 22:54:00
8:54 PM,46.9,24.1,41,30.03,-9999.0,NNW,11.5,19.6,N/A,,Unknown,330,2013-05-14 00:54:00
9:54 PM,46.0,26.1,46,30.05,-9999.0,NW,8.1,-,N/A,,Unknown,310,2013-05-14 01:54:00
10:54 PM,45.0,27.0,49,30.04,-9999.0,NW,10.4,-,N/A,,Unknown,310,2013-05-14 02:54:00
11:54 PM,44.1,27.0,51,30.03,-9999.0,NW,9.2,-,N/A,,Unknown,310,2013-05-14 03:54:00